Date String (YYYY-MM-DD hh:mm:ss) UTC,Instrument flags,Ambient pressure (hPa),Sample flow (lpm),Bypass flow (lpm),Sample temperature (°C),Ambient temperature (°C),ASC tube jacket temperature (°C),LED temperature (°C),Box temperature (°C),Sample RH (%),Span deviation,Mass concentration (μg/m³),Mass concentration (μg/m³),Mass concentration (μg/m³)
DateTimeUTC,F1_M11,P_M11,Q1_M11,Q2_M11,T1_M11,T2_M11,T3_M11,T4_M11,T5_M11,U1_M11,ZSPAN_M11,X0_M11,X2_M11,X1_M11
2022-12-18 01:00:00,,0822.4,5.02,0.00,22.6,20.9,00.0,31.5,24.4,05.0,0000.0,0009.63,0003.42,0002.42
2022-12-18 01:01:00,,0822.4,4.98,0.00,22.6,20.9,00.0,31.5,24.3,05.0,0000.0,0009.46,0003.41,0002.39
2022-12-18 01:02:00,,0822.4,5.02,0.00,22.6,20.9,00.0,31.5,24.3,05.0,0000.0,0009.08,0003.41,0002.36
2022-12-18 01:03:00,,0822.5,5.02,0.00,22.6,20.9,00.0,31.5,24.3,05.0,0000.0,0009.09,0003.42,0002.33
2022-12-18 01:04:00,,0822.5,4.98,0.00,22.5,20.9,00.0,31.5,24.3,05.0,0000.0,0008.64,0003.46,0002.34
2022-12-18 01:05:00,,0822.4,5.03,0.00,22.5,20.9,00.0,31.5,24.3,05.0,0000.0,0008.50,0003.47,0002.34
2022-12-18 01:06:00,,0822.4,4.96,0.00,22.5,20.9,00.0,31.5,24.3,05.0,0000.0,0008.98,0003.48,0002.34
2022-12-18 01:07:00,,0822.4,5.04,0.00,22.5,20.9,00.0,31.4,24.3,05.0,0000.0,0009.45,0003.55,0002.35
2022-12-18 01:08:00,,0822.4,4.96,0.00,22.5,20.8,00.0,31.4,24.2,05.0,0000.0,0009.36,0003.56,0002.36
2022-12-18 01:09:00,,0822.5,5.03,0.00,22.5,20.8,00.0,31.4,24.2,05.0,0000.0,0009.75,0003.59,0002.38
2022-12-18 01:10:00,,0822.4,4.96,0.00,22.4,20.8,00.0,31.4,24.2,05.0,0000.0,0010.33,0003.63,0002.40
2022-12-18 01:11:00,,0822.4,5.04,0.00,22.4,20.8,00.0,31.4,24.1,05.0,0000.0,0010.54,0003.67,0002.42
2022-12-18 01:12:00,,0822.4,4.96,0.00,22.4,20.8,00.0,31.4,24.1,05.0,0000.0,0010.91,0003.68,0002.43
2022-12-18 01:13:00,,0822.4,5.03,0.00,22.4,20.7,00.0,31.3,24.1,05.0,0000.0,0011.28,0003.68,0002.43
2022-12-18 01:14:00,,0822.4,4.99,0.00,22.3,20.7,00.0,31.3,24.1,05.0,0000.0,0011.84,0003.69,0002.45
2022-12-18 01:15:00,,0822.4,5.00,0.00,22.4,20.9,00.0,31.3,24.2,05.0,0000.0,0012.63,0003.67,0002.45
2022-12-18 01:16:00,,0822.4,5.00,0.00,22.4,21.6,00.0,31.2,24.4,05.0,0000.0,0012.84,0003.68,0002.45
2022-12-18 01:17:00,,0822.4,5.00,0.00,22.5,22.1,00.0,31.3,24.5,05.0,0000.0,0012.60,0003.68,0002.45
2022-12-18 01:18:00,,0822.4,4.97,0.00,22.6,22.0,00.0,31.3,24.5,05.0,0000.0,0011.94,0003.62,0002.43
2022-12-18 01:19:00,,0822.4,5.04,0.00,22.6,21.8,00.0,31.3,24.5,04.9,0000.0,0011.89,0003.60,0002.43
2022-12-18 01:20:00,,0822.4,4.96,0.00,22.6,21.5,00.0,31.3,24.4,04.9,0000.0,0011.28,0003.60,0002.46
2022-12-18 01:21:00,,0822.4,5.03,0.00,22.6,21.4,00.0,31.4,24.4,04.9,0000.0,0010.71,0003.61,0002.47
2022-12-18 01:22:00,,0822.4,4.96,0.00,22.5,21.3,00.0,31.4,24.4,04.9,0000.0,0011.21,0003.68,0002.51
2022-12-18 01:23:00,,0822.4,5.03,0.00,22.5,21.2,00.0,31.4,24.4,04.9,0000.0,0011.18,0003.62,0002.53
2022-12-18 01:24:00,,0822.4,4.96,0.00,22.5,21.1,00.0,31.4,24.4,04.9,0000.0,0010.67,0003.63,0002.55
2022-12-18 01:25:00,,0822.4,5.03,0.00,22.5,21.1,00.0,31.4,24.3,04.9,0000.0,0010.07,0003.62,0002.55
2022-12-18 01:26:00,,0822.4,4.96,0.00,22.5,21.0,00.0,31.4,24.3,04.9,0000.0,0008.83,0003.59,0002.55
2022-12-18 01:27:00,,0822.4,5.03,0.00,22.5,21.0,00.0,31.4,24.3,04.9,0000.0,0008.67,0003.63,0002.56
2022-12-18 01:28:00,,0822.4,5.02,0.00,22.4,20.9,00.0,31.4,24.3,04.9,0000.0,0008.86,0003.63,0002.56
2022-12-18 01:29:00,,0822.4,4.97,0.00,22.4,20.9,00.0,31.3,24.3,04.9,0000.0,0009.19,0003.64,0002.59
2022-12-18 01:30:00,,0822.4,5.03,0.00,22.4,21.0,00.0,31.3,24.2,04.9,0000.0,0009.31,0003.66,0002.60
2022-12-18 01:31:00,,0822.4,4.95,0.00,22.4,20.9,00.0,31.3,24.1,04.9,0000.0,0009.36,0003.70,0002.59
2022-12-18 01:32:00,,0822.4,5.04,0.00,22.4,20.9,00.0,31.3,24.1,04.9,0000.0,0009.74,0003.66,0002.55
2022-12-18 01:33:00,,0822.4,5.01,0.00,22.4,20.9,00.0,31.3,24.1,04.9,0000.0,0009.74,0003.60,0002.50
2022-12-18 01:34:00,,0822.4,4.98,0.00,22.4,20.8,00.0,31.3,24.1,04.9,0000.0,0009.51,0003.61,0002.48
2022-12-18 01:35:00,,0822.4,5.03,0.00,22.4,20.8,00.0,31.3,24.1,04.9,0000.0,0010.12,0003.59,0002.47
2022-12-18 01:36:00,,0822.4,4.96,0.00,22.3,20.8,00.0,31.3,24.1,04.9,0000.0,0011.09,0003.60,0002.47
2022-12-18 01:37:00,,0822.4,5.03,0.00,22.3,20.8,00.0,31.3,24.1,04.9,0000.0,0011.35,0003.66,0002.48
2022-12-18 01:38:00,,0822.4,4.98,0.00,22.3,20.8,00.0,31.3,24.0,04.9,0000.0,0012.14,0003.66,0002.48
2022-12-18 01:39:00,,0822.4,5.01,0.00,22.3,20.8,00.0,31.2,24.0,04.9,0000.0,0012.03,0003.68,0002.51
2022-12-18 01:40:00,,0822.4,5.03,0.00,22.3,21.2,00.0,31.2,24.2,05.0,0000.0,0012.67,0003.74,0002.55
2022-12-18 01:41:00,,0822.4,4.98,0.00,22.4,21.9,00.0,31.2,24.4,04.9,0000.0,0012.85,0003.77,0002.61
2022-12-18 01:42:00,,0822.4,4.97,0.00,22.5,22.1,00.0,31.2,24.5,04.9,0000.0,0013.71,0003.85,0002.70
2022-12-18 01:43:00,,0822.3,5.04,0.00,22.5,21.9,00.0,31.3,24.5,04.9,0000.0,0015.16,0003.96,0002.78
2022-12-18 01:44:00,,0822.4,4.97,0.00,22.5,21.7,00.0,31.3,24.4,04.9,0000.0,0015.45,0004.08,0002.84
2022-12-18 01:45:00,,0822.4,5.04,0.00,22.5,21.5,00.0,31.3,24.4,04.9,0000.0,0016.37,0004.17,0002.91
2022-12-18 01:46:00,,0822.4,4.96,0.00,22.5,21.3,00.0,31.3,24.4,04.9,0000.0,0018.30,0004.25,0002.96
2022-12-18 01:47:00,,0822.4,5.04,0.00,22.5,21.2,00.0,31.3,24.3,04.9,0000.0,0017.62,0004.28,0002.99
2022-12-18 01:48:00,,0822.4,4.95,0.00,22.5,21.2,00.0,31.3,24.3,04.9,0000.0,0017.43,0004.21,0002.99
2022-12-18 01:49:00,,0822.4,5.05,0.00,22.5,21.1,00.0,31.3,24.3,04.9,0000.0,0016.62,0004.21,0002.98
2022-12-18 01:50:00,,0822.4,4.98,0.00,22.5,21.1,00.0,31.3,24.3,04.9,0000.0,0016.38,0004.17,0002.92
2022-12-18 01:51:00,,0822.4,5.02,0.00,22.4,21.0,00.0,31.3,24.3,04.9,0000.0,0015.64,0004.10,0002.85
2022-12-18 01:52:00,,0822.4,5.04,0.00,22.4,20.9,00.0,31.3,24.2,04.9,0000.0,0016.09,0004.03,0002.75
2022-12-18 01:53:00,,0822.4,4.97,0.00,22.4,20.8,00.0,31.3,24.2,04.9,0000.0,0016.74,0003.91,0002.62
2022-12-18 01:54:00,,0822.4,5.03,0.00,22.4,20.7,00.0,31.3,24.2,04.9,0000.0,0015.37,0003.82,0002.52
2022-12-18 01:55:00,,0822.4,4.96,0.00,22.3,20.7,00.0,31.3,24.1,05.0,0000.0,0014.33,0003.67,0002.45
2022-12-18 01:56:00,,0822.4,5.03,0.00,22.3,20.7,00.0,31.3,24.1,04.9,0000.0,0014.34,0003.57,0002.36
2022-12-18 01:57:00,,0822.4,5.01,0.00,22.3,20.7,00.0,31.3,24.1,05.0,0000.0,0011.82,0003.47,0002.27
2022-12-18 01:58:00,,0822.3,4.97,0.00,22.3,20.6,00.0,31.3,24.1,05.0,0000.0,0011.18,0003.43,0002.21
2022-12-18 01:59:00,,0822.4,5.03,0.00,22.3,20.6,00.0,31.2,24.1,05.0,0000.0,0011.07,0003.38,0002.15
